Location: Newark
(41.6500°N, 71.4833°W)
Time: 20:05:04
(UTC+00:00)

Courier 1B - Pass Details

Date: 29 January 2020
Orbit: 962 x 1209 km, 28.3° (Epoch: 17 February)

Event Time Altitude Azimuth Distance (km) Brightness Sun altitude
Rises 05:09:18 0° 215° (SW) 3,697 - -66.3°
Reaches altitude 10° 05:13:02 10° 194° (SSW) 2,790 - -66.2°
Maximum altitude 05:16:58 16° 158° (SSE) 2,414 - -66.1°
Drops below altitude 10° 05:21:01 10° 123° (ESE) 2,897 - -66.0°
Sets 05:25:01 0° 103° (ESE) 3,910 - -65.8°
